Location: Cape Cod Imaging Station
(41.7417°N, 70.1583°W)
Time: 11:44:03
(UTC-05:00)

ISS - Visible Passes

Search period start: 16 December 2017 00:00
Search period end: 26 December 2017 00:00
Orbit: 402 x 406 km, 51.6° (Epoch: 16 December)

Date Brightness Start Highest point End Pass type
(mag) Time Alt. Az. Time Alt. Az. Time Alt. Az.
16 Dec -2.6 17:17:10 10° WNW 17:20:19 43° SW 17:23:26 10° SSE visible
18 Dec -0.7 17:09:41 10° W 17:12:03 18° SW 17:14:25 10° S visible
25 Dec -0.8 06:12:11 10° S 06:14:41 20° SE 06:17:12 10° E visible
